Overview Statistics Trail Chart Weather Telemetry Raw packets
 

This is the latest recevied weather packets stored in our database for station/object IU1OLT-7. If no packets are shown the sender has not sent any weather packets the latest 10 day(s).

<< 1 2 3 4 5 6 7 >>
Time Temp. Humidity Pressure Rain* Wind** Luminosity Snow
1788522989 35.56° C 22% 1026.3 hPa - - - -
1788522089 34.44° C 24% 1026.3 hPa - - - -
1788521189 36.11° C 24% 1026.3 hPa - - - -
1788520289 35° C 25% 1026.3 hPa - - - -
1788519407 35° C 24% 1026.3 hPa - - - -
1788518489 34.44° C 27% 1026.4 hPa - - - -
1788517589 35° C 24% 1026.4 hPa - - - -
1788516689 33.89° C 24% 1026.5 hPa - - - -
1788515785 35° C 21% 1026.5 hPa - - - -
1788514885 35° C 23% 1026.6 hPa - - - -
1788513085 35.56° C 19% 1026.6 hPa - - - -
1788512193 36.11° C 21% 1026.4 hPa - - - -
1788511291 34.44° C 23% 1026.4 hPa - - - -
1788509485 33.33° C 26% 1026.3 hPa - - - -
1788508591 30.56° C 30% 1026.2 hPa - - - -
1788507691 29.44° C 30% 1026.2 hPa - - - -
1788506785 31.11° C 30% 1025.9 hPa - - - -
1788505891 29.44° C 20% 1025.9 hPa - - - -
1788504985 30.56° C 19% 1025.9 hPa - - - -
1788504085 33.33° C 18% 1025.7 hPa - - - -
1788503182 32.22° C 22% 1025.8 hPa - - - -
1788502283 30.56° C 20% 1025.8 hPa - - - -
1788501382 28.33° C 24% 1025.8 hPa - - - -
1788500482 27.22° C 26% 1025.8 hPa - - - -
1788499582 26.11° C 29% 1025.8 hPa - - - -

* Rain since midnight (hover to see other rain measurements)
** Current wind speed in m/s (hover to see current wind gust speed)